Manchester, NH

12:19 PM EDT on June 23, 2017 (GMT -0400)
Manchester

Weather History for KMHT - February, 2013

Change the Weather History Date:

Monday, February 4, 2013

  Actual Average Record
Temperature  
Mean Temperature 24 °F 26 °F  
Max Temperature 28 °F 35 °F 58 °F (2016)
Min Temperature 19 °F 17 °F 0 °F (2015)
Degree Days  
Heating Degree Days 42 39  
Month to date heating degree days 159  
Since 1 July heating degree days 3785  
Cooling Degree Days 0 0  
Month to date cooling degree days 0  
Year to date cooling degree days 0  
Moisture  
Dew Point 5 °F    
Average Humidity 46    
Maximum Humidity 81    
Minimum Humidity 29    
Precipitation  
Precipitation 0.00 in 0.07 in 1.66 in (1970)
Month to date precipitation 0.27  
Year to date precipitation 3.29  
Snow  
Snow 0.00 in - - ()
Month to date snowfall  
Since 1 July snowfall  
Snow Depth -    
Sea Level Pressure  
Sea Level Pressure 29.82 in    
Wind  
Wind Speed 8 mph (West)    
Max Wind Speed 22 mph    
Max Gust Speed 38 mph    
Visibility 10 miles    
Events      
T = Trace of Precipitation, MM = Missing Value Source: NWS Daily Summary

Daily Weather History Graph

Daily Weather History Graph

Search for Another Location

Airport or City:

Trip Planner

Search our weather history database for the weather conditions in past years. The results will help you decide how hot, cold, wet, or windy it might be!

Date:

Astronomy

Feb. 04, 2013 Rise Set
Actual Time 6:57 AM EST 5:02 PM EST
Civil Twilight 6:27 AM EST 5:32 PM EST
Nautical Twilight 5:53 AM EST 6:06 PM EST
Astronomical Twilight 5:20 AM EST 6:39 PM EST
Moon 1:31 AM EST (2/4) 11:21 AM EST (2/4)
Length of Visible Light 11h 05m
Length of Day
10h 05m
Last Quarter, 37% of the Moon is Illuminated
Feb 4
Last Quarter
Feb 10
New
Feb 17
First Quarter
Feb 25
Full
Mar 4
Last Quarter

Hourly Weather History & Observations

Time (EST) Temp. Windchill Dew Point Humidity Pressure Visibility Wind Dir Wind Speed Gust Speed Precip Events Conditions
12:53 AM 23.0 °F - 18.0 °F 81% 29.75 in 10.0 mi Calm Calm - N/A   Scattered Clouds
1:53 AM 23.0 °F 15.8 °F 12.9 °F 65% 29.76 in 10.0 mi West 5.8 mph - N/A   Mostly Cloudy
2:53 AM 23.0 °F 14.7 °F 12.0 °F 63% 29.75 in 10.0 mi West 6.9 mph - N/A   Scattered Clouds
3:53 AM 21.9 °F - 10.9 °F 63% 29.75 in 10.0 mi Calm Calm - N/A   Clear
5:53 AM 21.0 °F 14.6 °F 10.9 °F 65% 29.77 in 10.0 mi West 4.6 mph - N/A   Clear
6:53 AM 21.0 °F 13.4 °F 10.9 °F 65% 29.78 in 10.0 mi WSW 5.8 mph - N/A   Clear
7:53 AM 21.9 °F 14.5 °F 10.9 °F 63% 29.80 in 10.0 mi West 5.8 mph - N/A   Clear
8:53 AM 25.0 °F 14.2 °F 9.0 °F 51% 29.80 in 10.0 mi WNW 11.5 mph 18.4 mph N/A   Partly Cloudy
9:53 AM 25.0 °F 11.7 °F 5.0 °F 43% 29.80 in 10.0 mi West 17.3 mph 24.2 mph N/A   Partly Cloudy
10:53 AM 26.1 °F 11.6 °F 3.0 °F 37% 29.80 in 10.0 mi WNW 21.9 mph 31.1 mph N/A   Scattered Clouds
11:53 AM 28.0 °F 15.7 °F -0.0 °F 30% 29.79 in 10.0 mi NW 17.3 mph 27.6 mph N/A   Mostly Cloudy
12:53 PM 28.0 °F 16.5 °F -0.9 °F 29% 29.78 in 10.0 mi West 15.0 mph 32.2 mph N/A   Mostly Cloudy
1:53 PM 28.0 °F 16.1 °F 1.0 °F 31% 29.79 in 10.0 mi West 16.1 mph 38.0 mph N/A   Mostly Cloudy
2:53 PM 27.0 °F 16.7 °F 3.0 °F 36% 29.79 in 10.0 mi West 11.5 mph 19.6 mph N/A   Mostly Cloudy
3:53 PM 27.0 °F 14.3 °F 1.0 °F 33% 29.80 in 10.0 mi WNW 17.3 mph 31.1 mph N/A   Scattered Clouds
4:53 PM 26.1 °F 14.0 °F 1.9 °F 35% 29.82 in 10.0 mi West 15.0 mph 21.9 mph N/A   Mostly Cloudy
5:53 PM 25.0 °F 13.6 °F 1.9 °F 37% 29.85 in 10.0 mi West 12.7 mph 20.7 mph N/A   Partly Cloudy
6:53 PM 25.0 °F 14.8 °F -0.0 °F 34% 29.88 in 10.0 mi West 10.4 mph 18.4 mph N/A   Partly Cloudy
7:53 PM 23.0 °F 13.1 °F -0.0 °F 37% 29.90 in 10.0 mi WSW 9.2 mph 18.4 mph N/A   Clear
8:53 PM 21.9 °F 12.5 °F -0.9 °F 37% 29.92 in 10.0 mi WSW 8.1 mph - N/A   Clear
9:53 PM 21.0 °F 13.4 °F -0.9 °F 38% 29.94 in 10.0 mi WSW 5.8 mph - N/A   Clear
10:53 PM 19.9 °F 10.1 °F -0.0 °F 42% 29.94 in 10.0 mi West 8.1 mph - N/A   Clear
11:53 PM 19.9 °F 7.3 °F -0.0 °F 42% 29.94 in 10.0 mi West 12.7 mph - N/A   Clear